Regional Weather Roundup
Issued by NWS Austin/San Antonio, TX

Current Version | Previous Version | Text Only | Print | Product List | Glossary On
Versions: 1 2 3 4 5 6 7 8 9 10 11 12 13 14 15 16 17 18 19 20 21 22 23 24 25 26 27 28 29 30 31 32 33 34 35 36 37 38 39 40 41 42 43 44 45 46 47 48 49 50
000
ASUS44 KEWX 300501
RWREWX
SOUTH TEXAS REGIONAL WEATHER ROUNDUP
NATIONAL WEATHER SERVICE AUSTIN/SAN ANTONIO TX
1200 AM CDT FRI SEP 30 2022

NOTE: "FAIR" INDICATED FEW OR NO CLOUDS BELOW 12,000 FEET WITH NO
SIGNIFICANT WEATHER AND/OR OBSTRUCTIONS TO VISIBILITY.

* - THESE STATIONS ARE NOT NWS OR FAA STATIONS...AND ARE NOT SUBJECT
    TO NWS AND FAA QUALITY CONTROL.

TXZ171-172-183>190-300600-
TEXAS HILL COUNTRY AND EDWARDS PLATEAU

CITY           SKY/WX    TMP DP  RH WIND       PRES   REMARKS
JUNCTION       CLEAR     64  48  56 W5        30.12F
*LLANO         PTCLDY    68  50  52 E6        30.08S
BURNET         CLEAR     73  49  42 CALM      30.12R
*HORSESHOE BAY CLEAR     74  45  35 SE7       30.09S
*LAGO VISTA      N/A     71  48  43 E7        30.11S
*KERRVILLE     CLEAR     62  49  60 N3        30.11F
*FREDERICKSBRG CLEAR     64  48  57 CALM      30.11S
*ROCKSPRINGS   MOCLDY    70  46  43 SW6       30.20S
*BOERNE        CLEAR     64  46  52 CALM      30.10F
*CASTROVILLE   CLEAR     75  46  35 NW3       30.09S
HONDO          CLEAR     71  49  45 W3        30.08F
*UVALDE        CLEAR     65  50  58 CALM      30.11S
DEL RIO        CLEAR     71  53  52 CALM      30.09R
*LAUGHLIN AFB  CLEAR     67  55  66 NE5       30.06F
*SPOFFORD      CLEAR     67  49  52 CALM      30.08S
CARRIZO SPRGS  CLEAR     72  50  46 SW5       30.07S
*FAITH RANCH   CLEAR     72  50  46 S7G13     30.10S
$$

TXZ173-191>194-202-209-217>225-228-300600-
CENTRAL AND SOUTH CENTRAL TEXAS

CITY           SKY/WX    TMP DP  RH WIND       PRES   REMARKS
GEORGETOWN     CLEAR     72  50  45 CALM      30.12R
*TAYLOR        CLEAR     68  51  53 CALM      30.09R
AUSTIN/BERGSTM CLEAR     63  52  67 CALM      30.07S
AUSTIN/MABRY   CLEAR     74  49  41 CALM      30.09S
*PFLUGERVILLE  CLOUDY    72  48  43 E3        30.07S
SAN MARCOS     CLEAR    N/A N/A N/A E6          N/A
NEW BRAUNFELS  CLEAR     70  50  49 CALM      30.05F
*RANDOLPH AFB  CLEAR     71  51  48 CALM      30.04F
*SEGUIN        CLEAR     69  50  49 CALM      30.04S
SAN ANTONIO    CLEAR     75  51  43 CALM      30.08S
STINSON FIELD  CLEAR     69  52  54 SE5       30.05S
*KELLY FIELD   CLEAR     70  51  51 CALM      30.04F
*PLEASANTON    CLEAR     70  54  56 CALM      30.07S
*KENEDY        CLEAR     71  58  62 CALM      30.07S
*LA GRANGE     NOT AVBL
*GIDDINGS      CLEAR     69  49  48 CALM      30.09S
*GONZALES      CLEAR     73  52  49 SE5       30.07S
$$

TXZ163>164-176>182-195>201-210>213-226-227-235-300600-
SOUTHEAST TEXAS

CITY           SKY/WX    TMP DP  RH WIND       PRES   REMARKS
COLLEGE STN    CLEAR     71  47  42 E8        30.09R
*BRYAN         CLEAR     68  48  48 E7        30.12R
*CALDWELL      CLEAR     67  50  53 CALM      30.09S
*CROCKETT      CLEAR     63  41  45 NE3       30.12R
*BRENHAM       CLEAR     68  52  56 CALM      30.09S
HUNTSVILLE     CLEAR     66  46  48 E3        30.11R
CONROE         CLEAR     65  46  50 VRB3      30.11R
HOUSTON BUSH   CLEAR     69  45  41 E12       30.09S
HOUSTON HOBBY  CLEAR     74  41  30 E17       30.08S
*HOUSTON SW AP NOT AVBL
PEARLAND       CLEAR     72  45  37 NE10      30.09S
HOUSTON HOOKS  CLEAR     69  45  41 E8        30.10R
ELLINGTON FLD  CLEAR     70  43  37 NE13      30.08S
SUGAR LAND     CLEAR     72  50  45 E8        30.07S
*HOUSTON EXEC  CLEAR     64  54  68 E7        30.09S
*CLEVELAND MUN NOT AVBL
*WHARTON       CLEAR     62  53  72 CALM      30.07F
*COLUMBUS      FAIR      61  52  71 CALM      30.09S
*EAGLE LAKE    CLEAR     67  51  54 MISG      30.07
$$

TXZ214>216-236>238-300600-
THE UPPER TEXAS COAST

CITY           SKY/WX    TMP DP  RH WIND       PRES   REMARKS
*ORANGE        CLEAR     64  48  54 NE5       30.13S
PORT ARTHUR    CLEAR     65  46  50 NE10      30.10R
GALVESTON      CLEAR     74  54  49 NE14      30.08S
ANGLETON       CLEAR     61  56  83 NE7       30.07S
*BAY CITY      CLEAR     62  58  87 CALM      30.07S
PALACIOS       CLEAR     66  59  78 NE3       30.06S
$$

TXZ229>234-239>247-300600-
TEXAS COASTAL BEND AND RIO GRANDE PLAINS

CITY           SKY/WX    TMP DP  RH WIND       PRES   REMARKS
VICTORIA       CLEAR     64  61  90 E5        30.06S
*BEEVILLE      CLEAR     68  59  73 CALM      30.05F
ROCKPORT       CLEAR     70  63  78 S3        30.04F
*PORT ARANSAS  CLEAR    N/A N/A N/A S3        30.07S
*PORT LAVACA   CLEAR     69  60  72 CALM      30.06S
*INGLESIDE     NOT AVBL
CORPUS CHRISTI CLEAR     71  61  70 S6        30.05S
CORPUS NAS     CLEAR     74  67  78 SW6       30.04F
*ROBSTOWN      CLEAR     71  59  67 MISG      30.06S
ALICE          CLEAR     67  61  81 SW7       30.05F
KINGSVILLE NAS CLEAR     66  63  90 SW7       30.05F
COTULLA        CLEAR     69  54  58 CALM      30.07S
LAREDO         CLEAR     75  55  49 SE5       30.07F
$$

TXZ248>255-300600-
DEEP SOUTH TEXAS

CITY           SKY/WX    TMP DP  RH WIND       PRES   REMARKS
BROWNSVILLE    CLEAR     68  64  87 CALM      30.05F
PORT ISABEL    CLEAR     68  63  84 CALM      30.05F
HARLINGEN      CLEAR     67  63  87 S3        30.05F
*HEBBRONVILLE  CLEAR     69  55  61 S5        30.10S
MCALLEN        CLEAR     71  60  68 CALM      30.07F
*WESLACO       CLEAR     72  61  68 SE3       30.07
FALFURRIAS     CLEAR     69  62  79 SW3       30.05F
EDINBURG       CLEAR     68  61  78 CALM      30.07F
*ZAPATA        CLEAR     69  66  92 CALM      30.08F
$$

TXZ213>215-236>238-242>244-246-247-251-254-255-300600-
CMAN STATIONS

STATION/POSITION TIME  TEMP    WIND        PRES    WAVE
                       AIR SEA DIR/SP/G            HT/PER
                 (UTC) (F)     (DEG/KT/KT) (MB)    (FT/S)
SEA RIM ST PARK  0400   63      70/  8/  8 1019.4
NORTH JETTY/GLS  0430   74 79   80/ 21/ 23 1017.1
EAGLE POINT      0430   73 78   70/ 19/ 23 1018.1
MORGANS POINT    0430   71 81   30/ 11/ 13 1018.4
MISSION/ARANSAS  0400   79     190/  4     1018.0
PORT O`CONNOR    0430   78 89   80/  2/  4 1017.4
PORT ARANSAS     0400   80     130/  6/  6   N/A
BAFFIN BAY       0430   79 83  150/  5/  6 1018.0
PORT ISABEL      0430   77 81   CALM  /  3 1017.3
$$



USA.gov is the U.S. government's official web portal to all federal, state and local government web resources and services.